sat.trackr.live / text

‹ back to catalog

UNKNOWN

NORAD 87561

UNKNOWN UNKNOWN UNKNOWN

§ Identity

Operator
Country
Launch date
Launch site
Launch vehicle
Mass (kg)
RCS (m²)

External: N2YO · Heavens-Above

§ Orbital elements

Epoch: 2026-05-22T21:45:32.855328Z

Period
116.87 min
Inclination
101.9847°
Eccentricity
0.0173274
Mean motion
12.32153976 rev/d
Perigee alt
1,402.8 km
Apogee alt
1,677.2 km
Semi-major
7,918.2 km
B*
-8.8927e-4
RAAN
200.8221°
Arg perigee
358.1898°
Mean anomaly
185.8968°
Rev number
56,228

§ Raw data

UNKNOWN1 87561U          26142.90663027 -.00000157  00000+0 -88927-3 0  99962 87561 101.9847 200.8221 0173274 358.1898 185.8968 12.32153976562287

JSON: /api/v1/satellites/87561 · /tle

For live sub-satellite position, see the globe view (requires WebGL).

§ Visibility from observer

Set your observer location to see the next 7 days of passes ≥ 10°. The values pass through the URL so the page stays shareable.

No JS? Fill the form by hand. The geolocation button needs JavaScript.